DW4662 Weather Reports


time (UTC)temp
C
wind
direction
speed
KPH
gust
KPH
rain 1hr
cm
rain 24hr
cm
rain mn
cm
humidity
%
barometer
mb
20190822215518 14 87 0.0 0.0 0.00 0.00 0.00 85 1024.8
20190822214519 14 87 0.0 0.0 0.00 0.00 0.00 84 1024.8
20190822212519 15 87 0.0 0.0 0.00 0.00 0.00 83 1024.9
20190822210519 15 87 0.0 0.0 0.00 0.00 0.00 83 1024.8
20190822205518 15 87 0.0 0.0 0.00 0.00 0.00 82 1024.8
20190822203518 16 87 0.0 0.0 0.00 0.00 0.00 82 1024.7
20190822200519 16 87 0.0 0.0 0.00 0.00 0.00 81 1024.8
20190822194518 17 87 1.6 8.0 0.00 0.00 0.00 80 1024.7
20190822193518 17 87 3.2 9.7 0.00 0.00 0.00 79 1024.7
20190822192518 17 87 0.0 8.0 0.00 0.00 0.00 79 1024.7
20190822191518 17 86 0.0 8.0 0.00 0.00 0.00 78 1024.6
20190822190518 18 86 0.0 1.6 0.00 0.00 0.00 77 1024.5
20190822185518 18 86 0.0 0.0 0.00 0.00 0.00 76 1024.3
20190822183518 18 86 0.0 0.0 0.00 0.00 0.00 75 1024.0
20190822182518 18 86 0.0 0.0 0.00 0.00 0.00 75 1023.9
20190822181518 19 86 0.0 1.6 0.00 0.00 0.00 74 1023.9
20190822175518 19 86 0.0 1.6 0.00 0.00 0.00 72 1023.6
20190822174517 19 86 0.0 3.2 0.00 0.00 0.00 72 1023.6
20190822173517 20 86 0.0 8.0 0.00 0.00 0.00 71 1023.5
20190822172517 20 86 1.6 4.8 0.00 0.00 0.00 70 1023.5
20190822171517 20 84 0.0 4.8 0.00 0.00 0.00 69 1023.5
20190822165520 20 84 1.6 9.7 0.00 0.00 0.00 66 1023.4
20190822162519 21 129 4.8 11.3 0.00 0.00 0.00 66 1023.4
20190822160519 21 92 1.6 12.9 0.00 0.00 0.00 66 1023.4
20190822154519 21 161 0.0 12.9 0.00 0.00 0.00 66 1023.4
20190822153519 21 120 8.0 14.5 0.00 0.00 0.00 66 1023.5
20190822151520 21 110 6.4 17.7 0.00 0.00 0.00 65 1023.5
20190822145519 21 82 1.6 6.4 0.00 0.00 0.00 67 1023.4
20190822143519 21 61 6.4 14.5 0.00 0.00 0.00 65 1023.5
20190822142519 21 68 4.8 14.5 0.00 0.00 0.00 66 1023.5
20190822141520 20 78 4.8 11.3 0.00 0.00 0.00 69 1023.6
20190822140519 20 84 4.8 12.9 0.00 0.00 0.00 69 1023.5
20190822134520 20 79 4.8 17.7 0.00 0.00 0.00 67 1023.6
20190822131519 20 56 6.4 11.3 0.00 0.00 0.00 66 1023.6
20190822125518 20 61 3.2 12.9 0.00 0.00 0.00 68 1023.6
20190822123519 20 40 3.2 14.5 0.00 0.00 0.00 67 1023.7
20190822114518 21 75 4.8 19.3 0.00 0.00 0.00 67 1023.9
20190822112518 20 26 9.7 16.1 0.00 0.00 0.00 67 1023.8
20190822111518 20 51 9.7 19.3 0.00 0.00 0.00 67 1023.8
20190822110518 20 58 4.8 20.9 0.00 0.00 0.00 65 1023.9
20190822105519 20 26 11.3 20.9 0.00 0.00 0.00 65 1023.9
20190822104520 20 48 6.4 17.7 0.00 0.00 0.00 69 1024.0
20190822103519 19 89 4.8 16.1 0.00 0.00 0.00 71 1024.0
20190822095518 17 48 3.2 14.5 0.00 0.00 0.00 74 1024.2
20190822094520 17 51 1.6 16.1 0.00 0.00 0.00 75 1024.3
20190822092518 17 90 11.3 20.9 0.00 0.00 0.00 74 1024.4
20190822091519 17 86 8.0 16.1 0.00 0.00 0.00 75 1024.4
20190822090518 17 62 8.0 22.5 0.00 0.00 0.00 75 1024.3
20190822084518 16 76 11.3 22.5 0.00 0.00 0.00 78 1024.2
20190822075518 15 86 8.0 19.3 0.00 0.00 0.00 88 1024.2
20190822074520 14 66 8.0 16.1 0.00 0.00 0.00 90 1024.1
20190822073518 13 83 12.9 22.5 0.00 0.00 0.00 92 1024.1
20190822072520 13 83 11.3 19.3 0.00 0.00 0.00 92 1024.1
20190822070520 12 65 6.4 16.1 0.00 0.00 0.00 93 1024.1
20190822063519 12 55 6.4 17.7 0.00 0.00 0.00 93 1024.2
20190822062519 11 62 4.8 12.9 0.00 0.00 0.00 93 1024.3
20190822050519 10 36 1.6 9.7 0.00 0.00 0.00 92 1023.7
20190822044519 10 30 1.6 8.0 0.00 0.00 0.00 92 1023.6
20190822040518 10 39 1.6 9.7 0.00 0.00 0.00 91 1023.8
20190822035519 11 43 3.2 8.0 0.00 0.00 0.00 91 1023.6
20190822030518 11 28 3.2 9.7 0.00 0.00 0.00 90 1023.6
20190822024518 11 33 3.2 9.7 0.00 0.00 0.00 90 1023.6
20190822023518 11 34 0.0 6.4 0.00 0.00 0.00 90 1023.6
20190822015518 11 33 1.6 8.0 0.00 0.00 0.00 90 1023.5
20190822013518 11 33 0.0 1.6 0.00 0.00 0.00 89 1023.5
20190822012518 11 33 0.0 0.0 0.00 0.00 0.00 89 1023.6
20190822011518 11 33 0.0 3.2 0.00 0.00 0.00 89 1023.7
20190822005518 12 33 0.0 9.7 0.00 0.00 0.00 88 1023.8
20190822004518 12 33 0.0 8.0 0.00 0.00 0.00 88 1023.7
20190822002517 12 33 0.0 1.6 0.00 0.00 0.00 87 1024.0
20190822001518 12 33 0.0 3.2 0.00 0.00 0.00 87 1024.1
20190821234518 12 33 0.0 0.0 0.00 0.00 0.00 86 1024.1
20190821233518 13 33 0.0 3.2 0.00 0.00 0.00 86 1024.2
20190821232518 13 33 0.0 4.8 0.00 0.00 0.00 86 1024.3
20190821225519 13 32 1.6 9.7 0.00 0.00 0.00 85 1024.6
20190821224518 13 45 1.6 6.4 0.00 0.00 0.00 85 1024.7
20190821222518 13 44 0.0 4.8 0.00 0.00 0.00 85 1024.7
20190821221519 13 44 0.0 6.4 0.00 0.00 0.00 84 1024.8